Edmonton, Alberta

4:10 AM MDT on March 25, 2017 (GMT -0600)
Edmonton International

Weather History for CYEG - March, 2013

Change the Weather History Date:

Monday, March 11, 2013

  Actual Average Record
Temperature  
Mean Temperature 26 °F -  
Max Temperature 34 °F 39 °F 52 °F (2016)
Min Temperature 17 °F 18 °F -36 °F (2009)
Degree Days  
Heating Degree Days 40    
Moisture  
Dew Point 18 °F    
Average Humidity 67    
Maximum Humidity 86    
Minimum Humidity 32    
Precipitation  
Precipitation 0.00 in 0.02 in - ()
Sea Level Pressure  
Sea Level Pressure 30.22 in    
Wind  
Wind Speed 11 mph ()    
Max Wind Speed 23 mph    
Max Gust Speed 31 mph    
Visibility 13.4 miles    
Events Snow    
Averages and records for this station are not official NWS values.
T = Trace of Precipitation, MM = Missing Value Source: Averaged Metar Reports

Daily Weather History Graph

Daily Weather History Graph

Search for Another Location

Airport or City:

Trip Planner

Search our weather history database for the weather conditions in past years. The results will help you decide how hot, cold, wet, or windy it might be!

Date:

Astronomy

Mar. 11, 2013 Rise Set
Actual Time 7:57 AM MDT 7:31 PM MDT
Civil Twilight 7:22 AM MDT 8:06 PM MDT
Nautical Twilight 6:42 AM MDT 8:47 PM MDT
Astronomical Twilight 6:01 AM MDT 9:28 PM MDT
Moon 7:29 AM MDT (3/11) 7:57 PM MDT (3/11)
Length of Visible Light 12h 43m
Length of Day
11h 34m
Waning Crescent, 0% of the Moon is Illuminated
Mar 11
Waning Crescent
Mar 11
New
Mar 19
First Quarter
Mar 27
Full
Apr 2
Last Quarter

Hourly Weather History & Observations

Time (MDT) Temp. Windchill Dew Point Humidity Pressure Visibility Wind Dir Wind Speed Gust Speed Precip Events Conditions
12:00 AM 29 °F - 11 °F 32% 30.06 in 15 mi West 12.7 mph - -   Mostly Cloudy
12:00 AM 28.4 °F 18.0 °F 10.4 °F 47% 30.06 in 15.0 mi West 12.7 mph - N/A   Mostly Cloudy
1:00 AM 26.6 °F 17.5 °F 12.2 °F 55% 30.06 in 15.0 mi West 9.2 mph - N/A   Mostly Cloudy
2:00 AM 30.2 °F 19.3 °F 12.2 °F 47% 30.06 in 15.0 mi West 15.0 mph 24.2 mph N/A   Mostly Cloudy
3:00 AM 30.2 °F 18.5 °F 12.2 °F 47% 30.06 in 15.0 mi West 17.3 mph 24.2 mph N/A   Mostly Cloudy
4:00 AM 28.4 °F 16.2 °F 12.2 °F 51% 30.08 in 15.0 mi West 17.3 mph 26.5 mph N/A   Mostly Cloudy
5:00 AM 26.6 °F 14.7 °F 14.0 °F 59% 30.10 in 15.0 mi WNW 15.0 mph - N/A   Mostly Cloudy
6:00 AM 30 °F - 16 °F 42% 30.12 in 15 mi WNW 20.7 mph - -   Mostly Cloudy
6:00 AM 30.2 °F 16.8 °F 15.8 °F 55% 30.12 in 15.0 mi WNW 23.0 mph 31.1 mph N/A   Mostly Cloudy
7:00 AM 30.2 °F 18.1 °F 17.6 °F 60% 30.17 in 15.0 mi NW 18.4 mph 27.6 mph N/A   Overcast
7:46 AM 28.4 °F 14.4 °F 19.4 °F 69% 30.19 in 15.0 mi NW 23.0 mph 28.8 mph N/A Snow Light Snow
8:00 AM 28.4 °F 15.1 °F 21.2 °F 74% 30.21 in 10.0 mi NNW 20.7 mph 29.9 mph N/A Snow Light Snow
8:45 AM 26.6 °F 15.7 °F 23.0 °F 86% 30.23 in 15.0 mi NNW 12.7 mph - N/A   Mostly Cloudy
9:00 AM 26.6 °F 16.2 °F 23.0 °F 86% 30.24 in 15.0 mi North 11.5 mph - N/A   Mostly Cloudy
9:54 AM 24.8 °F 14.0 °F 19.4 °F 80% 30.27 in 12.0 mi North 11.5 mph - N/A Snow Light Snow
10:00 AM 24.8 °F 14.0 °F 21.2 °F 86% 30.27 in 8.0 mi North 11.5 mph - N/A Snow Light Snow
11:00 AM 26.6 °F 16.8 °F 21.2 °F 80% 30.29 in 4.0 mi North 10.4 mph - N/A Snow Light Snow
12:00 PM 26 °F - 20 °F 70% 30.31 in 4 mi North 8.1 mph - - Snow Light Snow
12:00 PM 26.6 °F 18.2 °F 19.4 °F 74% 30.30 in 4.0 mi North 8.1 mph - N/A Snow Light Snow
1:00 PM 26.6 °F 21.2 °F 21.2 °F 80% 30.31 in 12.0 mi North 4.6 mph - N/A Snow Light Snow
1:40 PM 28.4 °F - 21.2 °F 74% 30.31 in 15.0 mi Calm Calm - N/A   Mostly Cloudy
2:00 PM 28.4 °F - 21.2 °F 74% 30.31 in 15.0 mi NNE 2.3 mph - N/A   Mostly Cloudy
3:00 PM 30.2 °F - 23.0 °F 75% 30.30 in 15.0 mi SW 2.3 mph - N/A   Mostly Cloudy
4:00 PM 33.8 °F 25.8 °F 21.2 °F 60% 30.29 in 15.0 mi West 10.4 mph - N/A   Mostly Cloudy
5:00 PM 33.8 °F 26.4 °F 21.2 °F 60% 30.30 in 15.0 mi West 9.2 mph - N/A   Mostly Cloudy
6:00 PM 31 °F - 22 °F 57% 30.29 in 15 mi SW 3.5 mph - -   Partly Cloudy
6:00 PM 30.2 °F 25.4 °F 21.2 °F 69% 30.29 in 15.0 mi WSW 4.6 mph - N/A   Scattered Clouds
7:00 PM 26.6 °F 20.0 °F 19.4 °F 74% 30.29 in 15.0 mi South 5.8 mph - N/A   Partly Cloudy
8:00 PM 24.8 °F 17.9 °F 17.6 °F 74% 30.30 in 15.0 mi South 5.8 mph - N/A   Partly Cloudy
9:00 PM 19.4 °F 12.8 °F 14.0 °F 80% 30.32 in 15.0 mi SSE 4.6 mph - N/A   Partly Cloudy
10:00 PM 17.6 °F 7.3 °F 12.2 °F 79% 30.32 in 15.0 mi South 8.1 mph - N/A   Partly Cloudy
11:00 PM 19.4 °F 9.5 °F 14.0 °F 80% 30.32 in 15.0 mi South 8.1 mph - N/A   Partly Cloudy